Weather Roundup
Issued by NWS

Home | Current Version | Previous Version | Text Only | Print | Product List | Glossary On
Versions: 1 2 3 4 5 6 7 8 9 10 11 12 13 14 15 16 17 18 19 20 21 22 23 24 25 26 27 28 29 30 31 32 33 34 35 36 37 38 39 40 41 42 43 44 45 46 47 48 49 50
123
NZUS93 KARX 130559
HRRWXR

CURRENT HOURLY OBSERVATIONS ACROSS
MUCH OF THE UPPER MISSISSIPPI VALLEY
NATIONAL WEATHER SERVICE LA CROSSE WI
1200 AM CST WED DEC 13 2017


...SOUTHEAST MINNESOTA...


CITY           SKY/WX    TMP DP  RH WIND       PRES   REMARKS
ROCHESTER      CLOUDY    25  21  85 S18       29.63F WCI  11
ROCHESTER/MAYO FAIR      28  22  78 S13G21    29.64F WCI  17
WINONA           N/A     28  19  69 SE6       29.70F WCI  22
AUSTIN         CLEAR     25  21  86 S9        29.64F WCI  15
ALBERT LEA     NOT AVBL
DODGE CENTER   CLOUDY    27  21  80 S16       29.60F WCI  14
PRESTON        PTCLDY    27  20  76 S14G21    29.65F WCI  15
OWATONNA       CLOUDY    28  25  86 S15       29.60F WCI  17
FARIBAULT      PTCLDY    28  25  86 S5        29.60F WCI  23
$$

...ELSEWHERE IN MINNESOTA...


CITY           SKY/WX    TMP DP  RH WIND       PRES   REMARKS
MINNEAPOLIS    CLOUDY    26  24  92 SE7       29.57F WCI  18
INTNL FALLS    CLOUDY    14  10  84 SE9       29.51F WCI   2
DULUTH         CLOUDY    13  12  96 SE13      29.57F WCI  -2
RED WING       PTCLDY    27  19  74 SE7       29.62F WCI  19
REDWOOD FALLS  CLOUDY    33  26  75 SW13      29.50F WCI  24
MANKATO        CLOUDY    28  24  85 S9        29.57F WCI  19
WORTHINGTON    CLOUDY    34  24  67 SW14      29.56F WCI  25
FAIRMONT       CLOUDY    28  24  85 S14       29.59F WCI  17
$$

...SOUTHWEST WISCONSIN...


CITY           SKY/WX    TMP DP  RH WIND       PRES   REMARKS
LA CROSSE      CLOUDY    26  16  65 S14       29.70F WCI  14
PRAIRIE DU CHI CLOUDY    29  15  56 S3        29.78F
BOSCOBEL       CLOUDY    27  13  55 S6        29.79F WCI  20
LONE ROCK      NOT AVBL
PLATTEVILLE    MOCLDY    24  14  65 S9        29.81F WCI  14
FORT MC COY    NOT AVBL
CAMP DOUGLAS   CLOUDY    19  12  72 SE8       29.75F WCI   9
MAUSTON-NEW LI CLOUDY    20  12  69 SE6       29.78F WCI  13
VIROQUA        CLOUDY    22  15  75 S8        29.73F WCI  12
WIS DELLS      CLOUDY    20  11  67 SE3       29.80F
$$

...ELSEWHERE IN WISCONSIN...


CITY           SKY/WX    TMP DP  RH WIND       PRES   REMARKS
MILWAUKEE      CLOUDY    20   4  50 SW5       29.87F WCI  13
MADISON        CLOUDY    21  10  62 S8        29.81F WCI  11
GREEN BAY      CLOUDY    16   3  56 SW5       29.84F WCI   9
EAU CLAIRE     NOT AVBL
BLACK RVR FLS  CLOUDY    20  11  67 E3        29.74F
MEDFORD        CLOUDY    11   9  91 SE7       29.69F FOG     WCI   1
WAUSAU         FLURRIES  12   7  80 SE8       29.72F WCI   0
WIS RAPIDS     CLOUDY    15  10  80 SE8       29.76F WCI   4
MARSHFIELD     CLOUDY    14  11  87 SE8       29.70F WCI   3
RICE LAKE      CLOUDY    16  11  83 SE12      29.67F WCI   3
$$

...NORTHEAST IOWA...


CITY           SKY/WX    TMP DP  RH WIND       PRES   REMARKS
WATERLOO       CLOUDY    26  18  71 S8        29.74F WCI  18
DUBUQUE        CLOUDY    23  14  68 S10       29.79F WCI  12
DECORAH        MOCLDY    27  19  74 S10       29.70F WCI  17
MASON CITY     CLOUDY    29  22  75 S16G23    29.66F WCI  17
CHARLES CITY   CLOUDY    27  21  80 S13       29.70F WCI  16
OELWEIN        CLOUDY    27  18  69 S12       29.75F WCI  16
$$

...ELSEWHERE IN IOWA...


CITY           SKY/WX    TMP DP  RH WIND       PRES   REMARKS
DES MOINES     CLEAR     28  21  75 S9        29.78F WCI  19
IOWA CITY      CLOUDY    27  14  58 S6        29.86F WCI  20
FORT DODGE     CLOUDY    28  23  81 S9        29.68F WCI  19
MARSHALLTOWN   CLOUDY    30  21  69 S17       29.74F WCI  18
CEDAR RAPIDS   CLOUDY    26  14  60 S7        29.81F WCI  18
$$

...NORTHERN ILLINOIS...


CITY           SKY/WX    TMP DP  RH WIND       PRES   REMARKS
CHICAGO-OHARE  CLOUDY    22   8  55 SW5       29.90F WCI  16
CHICAGO-MIDWAY CLOUDY    22   8  55 SW6       29.92F WCI  14
MOLINE         CLOUDY    28   7  41 SW7       29.88F WCI  21
ROCKFORD       CLOUDY    22  13  68 S6        29.88F WCI  14
PEORIA         CLOUDY    24   9  52 S5        29.94F WCI  18
$$

NOTE: "FAIR" INDICATES FEW OR NO CLOUDS BELOW 12,000 FEET WITH NO
SIGNIFICANT WEATHER AND/OR OBSTRUCTIONS TO VISIBILITY. WIND
SPEEDS ARE IN MILES-PER-HOUR.




USA.gov is the U.S. government's official web portal to all federal, state and local government web resources and services.